Location: Newark
(34.1333°N, 7.9667°W)
Time: 08:17:02
(UTC+00:00)

ISS - Visible Passes

Search period start: 05 April 2020 00:00
Search period end: 15 April 2020 00:00
Orbit: 418 x 423 km, 51.6° (Epoch: 06 April)

Date Brightness Start Highest point End Pass type
(mag) Time Alt. Az. Time Alt. Az. Time Alt. Az.
05 Apr -3.2 20:40:19 10° NW 20:43:16 56° W 20:43:16 56° W visible
06 Apr -3.8 19:53:10 10° NW 19:56:31 68° NE 19:58:23 24° ESE visible
07 Apr -1.4 20:43:44 10° W 20:45:56 16° SW 20:46:36 16° SW visible
08 Apr -2.1 19:55:55 10° WNW 19:58:54 30° SW 20:01:53 10° SSE visible
